Time,TemperatureF,DewpointF,PressureIn,WindDirection,WindDirectionDegrees,WindSpeedMPH,WindSpeedGustMPH,Humidity,HourlyPrecipIn,Conditions,Clouds,dailyrainin,SoftwareType,DateUTC
2013-06-06 00:04:00,60.1,58.1,29.90,North,355,0.0,0.0,93,0.00,,,0.00,Wunderground v.1.15,2013-06-06 05:04:00,
2013-06-06 00:10:00,59.9,57.9,29.90,North,355,0.0,0.0,93,0.00,,,0.00,Wunderground v.1.15,2013-06-06 05:10:00,
2013-06-06 00:15:00,59.9,57.9,29.90,North,355,0.0,0.0,93,0.00,,,0.00,Wunderground v.1.15,2013-06-06 05:15:00,
2013-06-06 00:20:00,59.9,57.9,29.90,North,355,1.0,1.0,93,0.00,,,0.00,Wunderground v.1.15,2013-06-06 05:20:00,
2013-06-06 00:26:00,59.9,57.9,29.90,North,355,1.0,2.0,93,0.00,,,0.00,Wunderground v.1.15,2013-06-06 05:26:00,
2013-06-06 00:31:00,59.9,57.9,29.90,North,355,0.0,0.0,93,0.00,,,0.00,Wunderground v.1.15,2013-06-06 05:31:00,
2013-06-06 00:36:00,59.9,57.9,29.89,North,355,0.0,0.0,93,0.00,,,0.00,Wunderground v.1.15,2013-06-06 05:36:00,
2013-06-06 00:41:00,59.8,57.8,29.89,North,355,0.0,0.0,93,0.00,,,0.00,Wunderground v.1.15,2013-06-06 05:41:00,
2013-06-06 00:46:00,59.8,58.1,29.89,North,355,0.0,0.0,94,0.00,,,0.00,Wunderground v.1.15,2013-06-06 05:46:00,
2013-06-06 00:52:00,59.9,58.2,29.88,North,355,0.0,0.0,94,0.00,,,0.00,Wunderground v.1.15,2013-06-06 05:52:00,
2013-06-06 00:58:00,59.9,58.2,29.88,North,355,0.0,0.0,94,0.00,,,0.00,Wunderground v.1.15,2013-06-06 05:58:00,
2013-06-06 01:03:00,60.1,58.4,29.88,North,355,0.0,0.0,94,0.00,,,0.00,Wunderground v.1.15,2013-06-06 06:03:00,
2013-06-06 01:08:00,60.2,58.5,29.88,North,355,0.0,0.0,94,0.00,,,0.00,Wunderground v.1.15,2013-06-06 06:08:00,
2013-06-06 01:14:00,60.2,58.5,29.88,North,355,0.0,2.0,94,0.00,,,0.00,Wunderground v.1.15,2013-06-06 06:14:00,
2013-06-06 01:19:00,60.1,58.4,29.87,North,355,0.0,2.0,94,0.00,,,0.00,Wunderground v.1.15,2013-06-06 06:19:00,
2013-06-06 01:25:00,60.1,58.4,29.87,North,355,3.0,3.0,94,0.00,,,0.00,Wunderground v.1.15,2013-06-06 06:25:00,
2013-06-06 01:30:00,60.1,58.4,29.87,North,355,0.0,1.0,94,0.00,,,0.00,Wunderground v.1.15,2013-06-06 06:30:00,
2013-06-06 01:35:00,60.1,58.4,29.87,North,355,0.0,1.0,94,0.00,,,0.00,Wunderground v.1.15,2013-06-06 06:35:00,
2013-06-06 01:40:00,59.9,58.2,29.87,North,355,0.0,0.0,94,0.00,,,0.00,Wunderground v.1.15,2013-06-06 06:40:00,
2013-06-06 01:45:00,59.9,58.2,29.87,North,355,2.0,2.0,94,0.00,,,0.00,Wunderground v.1.15,2013-06-06 06:45:00,
2013-06-06 01:50:00,59.9,58.2,29.86,North,355,0.0,0.0,94,0.00,,,0.00,Wunderground v.1.15,2013-06-06 06:50:00,
2013-06-06 01:56:00,59.8,58.1,29.86,North,355,0.0,2.0,94,0.00,,,0.00,Wunderground v.1.15,2013-06-06 06:56:00,
2013-06-06 02:01:00,59.8,58.1,29.86,North,355,0.0,1.0,94,0.00,,,0.00,Wunderground v.1.15,2013-06-06 07:01:00,
2013-06-06 02:06:00,59.6,57.9,29.86,North,355,0.0,2.0,94,0.00,,,0.00,Wunderground v.1.15,2013-06-06 07:06:00,
2013-06-06 02:11:00,59.6,57.9,29.86,North,355,3.0,3.0,94,0.00,,,0.00,Wunderground v.1.15,2013-06-06 07:11:00,
2013-06-06 02:16:00,59.5,57.8,29.86,North,355,1.0,3.0,94,0.00,,,0.00,Wunderground v.1.15,2013-06-06 07:16:00,
2013-06-06 02:22:00,59.3,57.6,29.86,North,355,1.0,1.0,94,0.00,,,0.00,Wunderground v.1.15,2013-06-06 07:22:00,
2013-06-06 02:27:00,59.3,57.6,29.86,North,355,1.0,2.0,94,0.00,,,0.00,Wunderground v.1.15,2013-06-06 07:27:00,
2013-06-06 02:32:00,59.2,57.5,29.87,North,355,0.0,0.0,94,0.00,,,0.00,Wunderground v.1.15,2013-06-06 07:32:00,
2013-06-06 02:37:00,59.2,57.5,29.87,North,355,0.0,0.0,94,0.00,,,0.00,Wunderground v.1.15,2013-06-06 07:37:00,
2013-06-06 02:42:00,59.0,57.3,29.87,North,355,0.0,0.0,94,0.00,,,0.00,Wunderground v.1.15,2013-06-06 07:42:00,
2013-06-06 02:47:00,58.9,57.2,29.86,North,355,0.0,0.0,94,0.00,,,0.00,Wunderground v.1.15,2013-06-06 07:47:00,
2013-06-06 02:52:00,58.9,57.2,29.86,North,355,0.0,0.0,94,0.00,,,0.00,Wunderground v.1.15,2013-06-06 07:52:00,
2013-06-06 02:57:00,58.7,57.0,29.86,North,355,0.0,0.0,94,0.00,,,0.00,Wunderground v.1.15,2013-06-06 07:57:00,
2013-06-06 03:02:00,58.6,56.9,29.86,North,355,0.0,0.0,94,0.00,,,0.00,Wunderground v.1.15,2013-06-06 08:02:00,
2013-06-06 03:07:00,58.6,57.2,29.86,North,355,0.0,0.0,95,0.00,,,0.00,Wunderground v.1.15,2013-06-06 08:07:00,
2013-06-06 03:12:00,58.4,57.0,29.86,North,355,0.0,2.0,95,0.00,,,0.00,Wunderground v.1.15,2013-06-06 08:12:00,
2013-06-06 03:17:00,58.4,57.0,29.85,North,355,0.0,2.0,95,0.00,,,0.00,Wunderground v.1.15,2013-06-06 08:17:00,
2013-06-06 03:22:00,58.6,57.2,29.85,North,355,1.0,4.0,95,0.00,,,0.00,Wunderground v.1.15,2013-06-06 08:22:00,
2013-06-06 03:28:00,58.6,57.2,29.85,North,355,0.0,4.0,95,0.00,,,0.00,Wunderground v.1.15,2013-06-06 08:28:00,
2013-06-06 03:33:00,58.6,57.2,29.85,North,355,0.0,0.0,95,0.00,,,0.00,Wunderground v.1.15,2013-06-06 08:33:00,
2013-06-06 03:38:00,58.6,57.2,29.85,North,355,0.0,0.0,95,0.00,,,0.00,Wunderground v.1.15,2013-06-06 08:38:00,
2013-06-06 03:43:00,58.6,57.2,29.85,North,355,0.0,0.0,95,0.00,,,0.00,Wunderground v.1.15,2013-06-06 08:43:00,
2013-06-06 03:48:00,58.6,57.2,29.86,North,355,0.0,0.0,95,0.00,,,0.00,Wunderground v.1.15,2013-06-06 08:48:00,
2013-06-06 03:53:00,58.6,57.2,29.86,North,355,0.0,0.0,95,0.00,,,0.00,Wunderground v.1.15,2013-06-06 08:53:00,
2013-06-06 03:58:00,58.7,57.3,29.86,North,355,0.0,0.0,95,0.00,,,0.00,Wunderground v.1.15,2013-06-06 08:58:00,
2013-06-06 04:03:00,58.7,57.3,29.87,North,355,0.0,0.0,95,0.00,,,0.00,Wunderground v.1.15,2013-06-06 09:03:00,
2013-06-06 04:08:00,58.7,57.3,29.87,North,355,0.0,0.0,95,0.00,,,0.00,Wunderground v.1.15,2013-06-06 09:08:00,
2013-06-06 04:13:00,58.6,57.2,29.87,North,355,0.0,0.0,95,0.00,,,0.00,Wunderground v.1.15,2013-06-06 09:13:00,
2013-06-06 04:18:00,58.6,57.2,29.88,North,355,0.0,0.0,95,0.00,,,0.00,Wunderground v.1.15,2013-06-06 09:18:00,
2013-06-06 04:23:00,58.6,57.2,29.88,North,355,0.0,0.0,95,0.00,,,0.00,Wunderground v.1.15,2013-06-06 09:23:00,
2013-06-06 04:28:00,58.4,57.0,29.88,North,355,0.0,0.0,95,0.00,,,0.00,Wunderground v.1.15,2013-06-06 09:28:00,
2013-06-06 04:33:00,58.4,57.0,29.88,North,355,0.0,0.0,95,0.00,,,0.00,Wunderground v.1.15,2013-06-06 09:33:00,
2013-06-06 04:38:00,58.4,57.3,29.88,North,355,0.0,2.0,96,0.00,,,0.00,Wunderground v.1.15,2013-06-06 09:38:00,
2013-06-06 04:43:00,58.4,57.3,29.88,North,355,0.0,0.0,96,0.00,,,0.00,Wunderground v.1.15,2013-06-06 09:43:00,
2013-06-06 04:48:00,58.4,57.3,29.86,North,355,0.0,0.0,96,0.00,,,0.00,Wunderground v.1.15,2013-06-06 09:48:00,
2013-06-06 04:53:00,58.3,57.2,29.86,North,355,0.0,0.0,96,0.00,,,0.00,Wunderground v.1.15,2013-06-06 09:53:00,
2013-06-06 04:58:00,58.3,57.2,29.86,North,355,0.0,0.0,96,0.00,,,0.00,Wunderground v.1.15,2013-06-06 09:58:00,
2013-06-06 05:03:00,58.3,57.2,29.86,North,355,0.0,0.0,96,0.00,,,0.00,Wunderground v.1.15,2013-06-06 10:03:00,
2013-06-06 05:08:00,58.1,57.0,29.86,North,355,0.0,0.0,96,0.00,,,0.00,Wunderground v.1.15,2013-06-06 10:08:00,
2013-06-06 05:13:00,58.1,57.0,29.86,North,355,0.0,2.0,96,0.00,,,0.00,Wunderground v.1.15,2013-06-06 10:13:00,
2013-06-06 05:18:00,58.0,56.9,29.87,North,355,0.0,2.0,96,0.00,,,0.00,Wunderground v.1.15,2013-06-06 10:18:00,
2013-06-06 05:23:00,58.0,56.9,29.87,North,355,0.0,0.0,96,0.00,,,0.00,Wunderground v.1.15,2013-06-06 10:23:00,
2013-06-06 05:28:00,58.0,56.9,29.87,North,355,0.0,0.0,96,0.00,,,0.00,Wunderground v.1.15,2013-06-06 10:28:00,
2013-06-06 05:33:00,58.0,56.9,29.87,North,355,0.0,0.0,96,0.00,,,0.00,Wunderground v.1.15,2013-06-06 10:33:00,
2013-06-06 05:38:00,58.0,56.9,29.87,North,355,0.0,2.0,96,0.00,,,0.00,Wunderground v.1.15,2013-06-06 10:38:00,
2013-06-06 05:43:00,57.8,56.7,29.87,North,355,0.0,2.0,96,0.00,,,0.00,Wunderground v.1.15,2013-06-06 10:43:00,
2013-06-06 05:48:00,58.0,56.9,29.87,North,355,0.0,3.0,96,0.00,,,0.00,Wunderground v.1.15,2013-06-06 10:48:00,
2013-06-06 05:53:00,58.0,56.9,29.87,North,355,0.0,1.0,96,0.00,,,0.00,Wunderground v.1.15,2013-06-06 10:53:00,
2013-06-06 05:59:00,57.8,56.7,29.87,North,355,0.0,1.0,96,0.00,,,0.00,Wunderground v.1.15,2013-06-06 10:59:00,
2013-06-06 06:04:00,57.6,56.5,29.87,North,355,3.0,3.0,96,0.00,,,0.00,Wunderground v.1.15,2013-06-06 11:04:00,
2013-06-06 06:09:00,57.6,56.5,29.87,North,355,0.0,3.0,96,0.00,,,0.00,Wunderground v.1.15,2013-06-06 11:09:00,
2013-06-06 06:14:00,57.6,56.5,29.87,North,355,0.0,1.0,96,0.00,,,0.00,Wunderground v.1.15,2013-06-06 11:14:00,
2013-06-06 06:19:00,57.8,56.7,29.88,North,355,0.0,3.0,96,0.00,,,0.00,Wunderground v.1.15,2013-06-06 11:19:00,
2013-06-06 06:24:00,57.8,56.7,29.88,North,355,0.0,0.0,96,0.00,,,0.00,Wunderground v.1.15,2013-06-06 11:24:00,
2013-06-06 06:29:00,58.0,56.9,29.88,North,355,0.0,0.0,96,0.00,,,0.00,Wunderground v.1.15,2013-06-06 11:29:00,
2013-06-06 06:34:00,58.0,56.9,29.88,North,355,0.0,2.0,96,0.00,,,0.00,Wunderground v.1.15,2013-06-06 11:34:00,
2013-06-06 06:39:00,58.1,57.0,29.88,North,355,0.0,2.0,96,0.00,,,0.00,Wunderground v.1.15,2013-06-06 11:39:00,
2013-06-06 06:44:00,58.1,57.0,29.88,North,355,0.0,0.0,96,0.00,,,0.00,Wunderground v.1.15,2013-06-06 11:44:00,
2013-06-06 06:49:00,58.3,57.2,29.88,North,355,0.0,1.0,96,0.00,,,0.00,Wunderground v.1.15,2013-06-06 11:49:00,
2013-06-06 06:54:00,58.4,57.3,29.88,North,355,0.0,1.0,96,0.00,,,0.00,Wunderground v.1.15,2013-06-06 11:54:00,
2013-06-06 06:59:00,58.4,57.3,29.88,North,355,0.0,1.0,96,0.00,,,0.00,Wunderground v.1.15,2013-06-06 11:59:00,
2013-06-06 07:04:00,58.7,57.6,29.89,North,355,0.0,0.0,96,0.00,,,0.00,Wunderground v.1.15,2013-06-06 12:04:00,
2013-06-06 07:09:00,58.9,57.8,29.89,North,355,3.0,3.0,96,0.00,,,0.00,Wunderground v.1.15,2013-06-06 12:09:00,
2013-06-06 07:14:00,59.0,57.9,29.89,North,355,2.0,3.0,96,0.00,,,0.00,Wunderground v.1.15,2013-06-06 12:14:00,
2013-06-06 07:19:00,59.2,58.3,29.89,North,355,3.0,3.0,97,0.00,,,0.00,Wunderground v.1.15,2013-06-06 12:19:00,
2013-06-06 07:24:00,59.3,58.4,29.89,North,355,0.0,2.0,97,0.00,,,0.00,Wunderground v.1.15,2013-06-06 12:24:00,
2013-06-06 07:29:00,59.5,58.6,29.89,North,355,0.0,2.0,97,0.00,,,0.00,Wunderground v.1.15,2013-06-06 12:29:00,
2013-06-06 07:34:00,59.6,58.7,29.89,North,355,0.0,1.0,97,0.00,,,0.00,Wunderground v.1.15,2013-06-06 12:34:00,
2013-06-06 07:39:00,59.8,58.9,29.89,North,355,0.0,2.0,97,0.00,,,0.00,Wunderground v.1.15,2013-06-06 12:39:00,
2013-06-06 07:44:00,59.9,59.0,29.89,North,355,1.0,3.0,97,0.00,,,0.00,Wunderground v.1.15,2013-06-06 12:44:00,
2013-06-06 07:49:00,60.1,59.2,29.89,North,355,3.0,3.0,97,0.00,,,0.00,Wunderground v.1.15,2013-06-06 12:49:00,
2013-06-06 07:54:00,60.2,59.3,29.89,North,355,0.0,5.0,97,0.00,,,0.00,Wunderground v.1.15,2013-06-06 12:54:00,
2013-06-06 07:59:00,60.4,59.5,29.89,North,355,0.0,5.0,97,0.00,,,0.00,Wunderground v.1.15,2013-06-06 12:59:00,
2013-06-06 08:04:00,60.5,59.6,29.89,North,355,1.0,2.0,97,0.00,,,0.00,Wunderground v.1.15,2013-06-06 13:04:00,
2013-06-06 08:09:00,60.7,59.8,29.89,North,355,6.0,6.0,97,0.00,,,0.00,Wunderground v.1.15,2013-06-06 13:09:00,
2013-06-06 08:15:00,60.7,59.8,29.89,NNW,347,1.0,6.0,97,0.00,,,0.00,Wunderground v.1.15,2013-06-06 13:15:00,
2013-06-06 08:19:00,60.9,60.0,29.88,North,355,2.0,2.0,97,0.00,,,0.00,Wunderground v.1.15,2013-06-06 13:19:00,
2013-06-06 08:24:00,61.0,60.1,29.88,North,355,0.0,3.0,97,0.00,,,0.00,Wunderground v.1.15,2013-06-06 13:24:00,
2013-06-06 08:30:00,61.2,60.3,29.88,North,355,1.0,2.0,97,0.00,,,0.00,Wunderground v.1.15,2013-06-06 13:30:00,
2013-06-06 08:35:00,61.3,60.4,29.88,North,355,1.0,4.0,97,0.00,,,0.00,Wunderground v.1.15,2013-06-06 13:35:00,
2013-06-06 08:40:00,61.3,60.4,29.88,NNE,30,2.0,2.0,97,0.00,,,0.00,Wunderground v.1.15,2013-06-06 13:40:00,
2013-06-06 08:45:00,61.3,60.4,29.88,North,355,3.0,5.0,97,0.00,,,0.00,Wunderground v.1.15,2013-06-06 13:45:00,
2013-06-06 08:50:00,61.6,60.7,29.88,North,355,0.0,2.0,97,0.00,,,0.00,Wunderground v.1.15,2013-06-06 13:50:00,
2013-06-06 08:56:00,61.8,60.9,29.88,North,355,4.0,4.0,97,0.00,,,0.00,Wunderground v.1.15,2013-06-06 13:56:00,
2013-06-06 09:01:00,62.0,61.1,29.88,NNW,344,4.0,6.0,97,0.00,,,0.00,Wunderground v.1.15,2013-06-06 14:01:00,
2013-06-06 09:06:00,62.4,61.5,29.88,NNW,345,3.0,6.0,97,0.00,,,0.00,Wunderground v.1.15,2013-06-06 14:06:00,
2013-06-06 09:11:00,62.4,61.5,29.88,NNW,342,2.0,5.0,97,0.00,,,0.00,Wunderground v.1.15,2013-06-06 14:11:00,
2013-06-06 09:16:00,62.6,61.7,29.88,NNW,342,2.0,5.0,97,0.00,,,0.00,Wunderground v.1.15,2013-06-06 14:16:00,
2013-06-06 09:21:00,63.1,62.2,29.88,NNW,342,3.0,3.0,97,0.00,,,0.00,Wunderground v.1.15,2013-06-06 14:21:00,
2013-06-06 09:27:00,63.9,63.0,29.88,NNW,342,3.0,5.0,97,0.00,,,0.00,Wunderground v.1.15,2013-06-06 14:27:00,
2013-06-06 09:32:00,64.3,63.4,29.87,NNW,346,3.0,8.0,97,0.00,,,0.00,Wunderground v.1.15,2013-06-06 14:32:00,
2013-06-06 09:37:00,65.0,63.8,29.87,North,355,3.0,8.0,96,0.00,,,0.00,Wunderground v.1.15,2013-06-06 14:37:00,
2013-06-06 09:42:00,65.6,64.4,29.87,North,350,3.0,5.0,96,0.00,,,0.00,Wunderground v.1.15,2013-06-06 14:42:00,
2013-06-06 09:47:00,66.3,64.8,29.87,North,350,0.0,5.0,95,0.00,,,0.00,Wunderground v.1.15,2013-06-06 14:47:00,
2013-06-06 09:52:00,66.4,64.3,29.87,NNW,339,3.0,5.0,93,0.00,,,0.00,Wunderground v.1.15,2013-06-06 14:52:00,
2013-06-06 09:57:00,66.6,64.2,29.87,North,350,5.0,7.0,92,0.00,,,0.00,Wunderground v.1.15,2013-06-06 14:57:00,
2013-06-06 10:02:00,66.6,63.6,29.87,North,350,0.0,2.0,90,0.00,,,0.00,Wunderground v.1.15,2013-06-06 15:02:00,
2013-06-06 10:07:00,66.6,62.6,29.87,NNW,339,5.0,5.0,87,0.00,,,0.00,Wunderground v.1.15,2013-06-06 15:07:00,
2013-06-06 10:12:00,66.4,62.1,29.87,NNW,344,1.0,3.0,86,0.00,,,0.00,Wunderground v.1.15,2013-06-06 15:12:00,
2013-06-06 10:17:00,66.4,61.8,29.87,NNW,344,2.0,5.0,85,0.00,,,0.00,Wunderground v.1.15,2013-06-06 15:17:00,
2013-06-06 10:22:00,66.4,61.8,29.87,NNW,344,3.0,3.0,85,0.00,,,0.00,Wunderground v.1.15,2013-06-06 15:22:00,
2013-06-06 10:27:00,66.4,61.8,29.87,NNW,344,0.0,4.0,85,0.00,,,0.00,Wunderground v.1.15,2013-06-06 15:27:00,
2013-06-06 10:32:00,66.3,61.3,29.88,NNW,346,1.0,3.0,84,0.00,,,0.00,Wunderground v.1.15,2013-06-06 15:32:00,
2013-06-06 10:37:00,66.1,61.1,29.88,North,355,2.0,4.0,84,0.00,,,0.00,Wunderground v.1.15,2013-06-06 15:37:00,
2013-06-06 10:42:00,66.0,61.4,29.88,North,355,3.0,3.0,85,0.00,,,0.00,Wunderground v.1.15,2013-06-06 15:42:00,
2013-06-06 10:47:00,66.0,61.7,29.88,North,355,1.0,5.0,86,0.00,,,0.00,Wunderground v.1.15,2013-06-06 15:47:00,
2013-06-06 10:52:00,65.8,61.5,29.88,North,355,0.0,5.0,86,0.00,,,0.00,Wunderground v.1.15,2013-06-06 15:52:00,
2013-06-06 10:57:00,65.8,61.5,29.88,North,355,2.0,5.0,86,0.00,,,0.00,Wunderground v.1.15,2013-06-06 15:57:00,
2013-06-06 11:03:00,65.6,61.3,29.89,North,355,0.0,4.0,86,0.00,,,0.00,Wunderground v.1.15,2013-06-06 16:03:00,
2013-06-06 11:08:00,65.6,61.3,29.89,North,355,1.0,4.0,86,0.00,,,0.00,Wunderground v.1.15,2013-06-06 16:08:00,
2013-06-06 11:13:00,65.8,61.8,29.89,North,355,2.0,6.0,87,0.00,,,0.00,Wunderground v.1.15,2013-06-06 16:13:00,
2013-06-06 11:18:00,66.0,61.7,29.90,NNW,342,2.0,6.0,86,0.00,,,0.00,Wunderground v.1.15,2013-06-06 16:18:00,
2013-06-06 11:23:00,66.1,62.1,29.90,NNW,342,0.0,3.0,87,0.00,,,0.00,Wunderground v.1.15,2013-06-06 16:23:00,
2013-06-06 11:28:00,66.3,62.3,29.90,NNW,342,0.0,3.0,87,0.00,,,0.00,Wunderground v.1.15,2013-06-06 16:28:00,
2013-06-06 11:33:00,66.6,62.3,29.89,NNW,342,0.0,1.0,86,0.00,,,0.00,Wunderground v.1.15,2013-06-06 16:33:00,
2013-06-06 11:38:00,66.9,62.6,29.89,NNW,342,0.0,3.0,86,0.00,,,0.00,Wunderground v.1.15,2013-06-06 16:38:00,
2013-06-06 11:43:00,66.9,62.2,29.89,NNW,342,0.0,4.0,85,0.00,,,0.00,Wunderground v.1.15,2013-06-06 16:43:00,
2013-06-06 11:48:00,66.9,62.2,29.89,NNW,342,2.0,4.0,85,0.00,,,0.00,Wunderground v.1.15,2013-06-06 16:48:00,
2013-06-06 11:53:00,66.6,61.6,29.89,NNW,345,5.0,6.0,84,0.00,,,0.00,Wunderground v.1.15,2013-06-06 16:53:00,
2013-06-06 11:58:00,66.4,61.8,29.89,NNW,345,4.0,6.0,85,0.00,,,0.00,Wunderground v.1.15,2013-06-06 16:58:00,
2013-06-06 12:03:00,66.1,61.8,29.89,NNW,345,0.0,4.0,86,0.00,,,0.00,Wunderground v.1.15,2013-06-06 17:03:00,
2013-06-06 12:08:00,65.6,61.6,29.89,NNW,345,1.0,4.0,87,0.00,,,0.00,Wunderground v.1.15,2013-06-06 17:08:00,
2013-06-06 12:13:00,65.5,61.9,29.89,NNW,345,0.0,1.0,88,0.00,,,0.01,Wunderground v.1.15,2013-06-06 17:13:00,
2013-06-06 12:18:00,65.6,62.3,29.89,NNW,345,0.0,3.0,89,0.00,,,0.01,Wunderground v.1.15,2013-06-06 17:18:00,
2013-06-06 12:23:00,65.5,62.2,29.89,NNW,345,1.0,3.0,89,0.00,,,0.01,Wunderground v.1.15,2013-06-06 17:23:00,
2013-06-06 12:28:00,65.0,61.7,29.89,NNW,345,0.0,3.0,89,0.00,,,0.01,Wunderground v.1.15,2013-06-06 17:28:00,
2013-06-06 12:33:00,65.0,62.0,29.89,NNW,345,0.0,1.0,90,0.00,,,0.01,Wunderground v.1.15,2013-06-06 17:33:00,
2013-06-06 12:38:00,65.2,62.5,29.89,NNW,345,0.0,1.0,91,0.00,,,0.01,Wunderground v.1.15,2013-06-06 17:38:00,
2013-06-06 12:43:00,65.6,62.9,29.89,NNW,345,0.0,0.0,91,0.00,,,0.01,Wunderground v.1.15,2013-06-06 17:43:00,
2013-06-06 12:48:00,66.1,63.7,29.89,NNW,345,0.0,0.0,92,0.00,,,0.01,Wunderground v.1.15,2013-06-06 17:48:00,
2013-06-06 12:53:00,66.3,63.6,29.89,NNW,345,0.0,0.0,91,0.00,,,0.01,Wunderground v.1.15,2013-06-06 17:53:00,
2013-06-06 12:58:00,66.3,63.6,29.89,NNW,345,0.0,0.0,91,0.00,,,0.01,Wunderground v.1.15,2013-06-06 17:58:00,
2013-06-06 13:03:00,66.4,63.7,29.90,NNW,345,0.0,0.0,91,0.00,,,0.01,Wunderground v.1.15,2013-06-06 18:03:00,
2013-06-06 13:08:00,66.4,63.7,29.90,NNW,345,0.0,0.0,91,0.00,,,0.01,Wunderground v.1.15,2013-06-06 18:08:00,
2013-06-06 13:13:00,66.4,63.4,29.90,NNW,345,0.0,0.0,90,0.00,,,0.01,Wunderground v.1.15,2013-06-06 18:13:00,
2013-06-06 13:18:00,66.3,63.3,29.90,NNW,345,0.0,0.0,90,0.00,,,0.01,Wunderground v.1.15,2013-06-06 18:18:00,
2013-06-06 13:23:00,66.1,63.1,29.90,NNW,345,2.0,2.0,90,0.00,,,0.01,Wunderground v.1.15,2013-06-06 18:23:00,
2013-06-06 13:28:00,66.0,63.0,29.90,NNW,345,0.0,3.0,90,0.00,,,0.02,Wunderground v.1.15,2013-06-06 18:28:00,
2013-06-06 13:33:00,66.1,63.4,29.90,NNW,345,0.0,0.0,91,0.00,,,0.02,Wunderground v.1.15,2013-06-06 18:33:00,
2013-06-06 13:38:00,66.3,63.6,29.90,NNW,345,0.0,0.0,91,0.00,,,0.02,Wunderground v.1.15,2013-06-06 18:38:00,
2013-06-06 13:43:00,66.3,63.6,29.90,NNW,345,0.0,0.0,91,0.00,,,0.02,Wunderground v.1.15,2013-06-06 18:43:00,
2013-06-06 13:48:00,66.3,63.6,29.90,NNW,345,0.0,0.0,91,0.00,,,0.02,Wunderground v.1.15,2013-06-06 18:48:00,
2013-06-06 13:53:00,66.3,63.6,29.90,NNW,345,0.0,0.0,91,0.00,,,0.03,Wunderground v.1.15,2013-06-06 18:53:00,
2013-06-06 13:58:00,66.3,63.6,29.90,NNW,345,0.0,0.0,91,0.00,,,0.03,Wunderground v.1.15,2013-06-06 18:58:00,
2013-06-06 14:03:00,65.8,63.1,29.89,NNW,345,0.0,4.0,91,0.00,,,0.03,Wunderground v.1.15,2013-06-06 19:03:00,
2013-06-06 14:08:00,65.6,62.9,29.89,NNW,345,0.0,4.0,91,0.00,,,0.03,Wunderground v.1.15,2013-06-06 19:08:00,
2013-06-06 14:13:00,65.6,63.2,29.89,NNW,345,0.0,1.0,92,0.00,,,0.04,Wunderground v.1.15,2013-06-06 19:13:00,
2013-06-06 14:18:00,65.8,63.4,29.89,NNW,345,0.0,1.0,92,0.00,,,0.04,Wunderground v.1.15,2013-06-06 19:18:00,
2013-06-06 14:23:00,66.0,63.6,29.89,NNW,345,0.0,0.0,92,0.00,,,0.04,Wunderground v.1.15,2013-06-06 19:23:00,
2013-06-06 14:28:00,66.4,64.0,29.89,NNW,345,1.0,3.0,92,0.00,,,0.04,Wunderground v.1.15,2013-06-06 19:28:00,
2013-06-06 14:34:00,67.3,65.2,29.88,NNW,345,1.0,2.0,93,0.00,,,0.04,Wunderground v.1.15,2013-06-06 19:34:00,
2013-06-06 14:39:00,67.9,65.5,29.88,NNW,345,3.0,3.0,92,0.00,,,0.04,Wunderground v.1.15,2013-06-06 19:39:00,
2013-06-06 14:44:00,67.6,64.9,29.88,NNE,18,0.0,4.0,91,0.00,,,0.04,Wunderground v.1.15,2013-06-06 19:44:00,
2013-06-06 14:49:00,67.8,64.8,29.87,NNE,18,0.0,4.0,90,0.00,,,0.04,Wunderground v.1.15,2013-06-06 19:49:00,
2013-06-06 14:54:00,68.4,65.4,29.87,NNE,18,0.0,1.0,90,0.00,,,0.04,Wunderground v.1.15,2013-06-06 19:54:00,
2013-06-06 14:59:00,68.9,65.5,29.87,NNE,18,3.0,4.0,89,0.00,,,0.04,Wunderground v.1.15,2013-06-06 19:59:00,
2013-06-06 15:04:00,69.1,65.1,29.87,North,355,0.0,3.0,87,0.00,,,0.04,Wunderground v.1.15,2013-06-06 20:04:00,
2013-06-06 15:09:00,68.8,64.1,29.87,North,355,1.0,10.0,85,0.00,,,0.04,Wunderground v.1.15,2013-06-06 20:09:00,
2013-06-06 15:14:00,67.9,62.5,29.87,North,360,3.0,6.0,83,0.00,,,0.04,Wunderground v.1.15,2013-06-06 20:14:00,
2013-06-06 15:19:00,67.3,62.3,29.87,North,350,4.0,6.0,84,0.00,,,0.04,Wunderground v.1.15,2013-06-06 20:19:00,
2013-06-06 15:24:00,66.9,62.2,29.87,North,350,3.0,4.0,85,0.00,,,0.04,Wunderground v.1.15,2013-06-06 20:24:00,
2013-06-06 15:29:00,66.8,62.5,29.87,North,350,1.0,4.0,86,0.00,,,0.04,Wunderground v.1.15,2013-06-06 20:29:00,
2013-06-06 15:34:00,66.8,62.8,29.87,North,350,0.0,2.0,87,0.00,,,0.04,Wunderground v.1.15,2013-06-06 20:34:00,
2013-06-06 15:39:00,67.3,63.6,29.87,North,350,2.0,4.0,88,0.00,,,0.04,Wunderground v.1.15,2013-06-06 20:39:00,
2013-06-06 15:44:00,67.6,63.3,29.87,North,350,0.0,2.0,86,0.00,,,0.04,Wunderground v.1.15,2013-06-06 20:44:00,
2013-06-06 15:49:00,68.1,63.4,29.87,North,350,0.0,2.0,85,0.00,,,0.04,Wunderground v.1.15,2013-06-06 20:49:00,
2013-06-06 15:54:00,68.6,64.2,29.87,North,350,0.0,0.0,86,0.00,,,0.04,Wunderground v.1.15,2013-06-06 20:54:00,
2013-06-06 15:59:00,68.8,63.4,29.87,North,350,0.0,0.0,83,0.00,,,0.04,Wunderground v.1.15,2013-06-06 20:59:00,
2013-06-06 16:04:00,68.8,62.0,29.87,North,350,0.0,1.0,79,0.00,,,0.04,Wunderground v.1.15,2013-06-06 21:04:00,
2013-06-06 16:09:00,69.1,62.7,29.87,North,350,0.0,1.0,80,0.00,,,0.04,Wunderground v.1.15,2013-06-06 21:09:00,
2013-06-06 16:14:00,69.3,62.5,29.87,North,350,0.0,0.0,79,0.00,,,0.04,Wunderground v.1.15,2013-06-06 21:14:00,
2013-06-06 16:19:00,69.3,62.5,29.87,North,350,0.0,0.0,79,0.00,,,0.04,Wunderground v.1.15,2013-06-06 21:19:00,
2013-06-06 16:24:00,69.3,62.5,29.87,North,350,3.0,4.0,79,0.00,,,0.04,Wunderground v.1.15,2013-06-06 21:24:00,
2013-06-06 16:29:00,68.9,61.4,29.87,North,350,3.0,4.0,77,0.00,,,0.04,Wunderground v.1.15,2013-06-06 21:29:00,
2013-06-06 16:35:00,68.6,61.1,29.87,North,350,2.0,5.0,77,0.00,,,0.04,Wunderground v.1.15,2013-06-06 21:35:00,
2013-06-06 16:40:00,68.4,61.3,29.87,North,350,1.0,2.0,78,0.00,,,0.04,Wunderground v.1.15,2013-06-06 21:40:00,
2013-06-06 16:45:00,68.1,61.3,29.87,North,350,0.0,2.0,79,0.00,,,0.04,Wunderground v.1.15,2013-06-06 21:45:00,
2013-06-06 16:50:00,68.1,61.7,29.86,North,350,0.0,0.0,80,0.00,,,0.04,Wunderground v.1.15,2013-06-06 21:50:00,
2013-06-06 16:55:00,68.4,62.0,29.86,North,350,0.0,2.0,80,0.00,,,0.04,Wunderground v.1.15,2013-06-06 21:55:00,
2013-06-06 17:00:00,68.6,62.2,29.86,North,350,0.0,0.0,80,0.00,,,0.04,Wunderground v.1.15,2013-06-06 22:00:00,
2013-06-06 17:05:00,68.9,62.5,29.86,North,350,0.0,1.0,80,0.00,,,0.04,Wunderground v.1.15,2013-06-06 22:05:00,
2013-06-06 17:10:00,68.8,61.7,29.86,North,350,1.0,1.0,78,0.00,,,0.04,Wunderground v.1.15,2013-06-06 22:10:00,
2013-06-06 17:15:00,68.9,61.4,29.86,North,9,3.0,7.0,77,0.00,,,0.04,Wunderground v.1.15,2013-06-06 22:15:00,
2013-06-06 17:20:00,68.9,60.6,29.85,North,5,5.0,10.0,75,0.00,,,0.04,Wunderground v.1.15,2013-06-06 22:20:00,
2013-06-06 17:25:00,68.8,60.2,29.85,North,355,4.0,12.0,74,0.00,,,0.04,Wunderground v.1.15,2013-06-06 22:25:00,
2013-06-06 17:30:00,68.6,59.6,29.85,NNW,344,4.0,4.0,73,0.00,,,0.04,Wunderground v.1.15,2013-06-06 22:30:00,
2013-06-06 17:35:00,68.6,59.6,29.86,NNW,339,3.0,7.0,73,0.00,,,0.04,Wunderground v.1.15,2013-06-06 22:35:00,
2013-06-06 17:40:00,68.4,59.0,29.86,NNW,345,4.0,5.0,72,0.00,,,0.04,Wunderground v.1.15,2013-06-06 22:40:00,
2013-06-06 17:45:00,68.4,59.0,29.86,NNW,344,0.0,6.0,72,0.00,,,0.04,Wunderground v.1.15,2013-06-06 22:45:00,
2013-06-06 17:50:00,68.4,59.0,29.86,NNW,329,5.0,6.0,72,0.00,,,0.04,Wunderground v.1.15,2013-06-06 22:50:00,
2013-06-06 17:55:00,68.4,59.0,29.86,North,355,6.0,10.0,72,0.00,,,0.04,Wunderground v.1.15,2013-06-06 22:55:00,
2013-06-06 18:00:00,68.4,58.6,29.86,North,355,3.0,4.0,71,0.00,,,0.04,Wunderground v.1.15,2013-06-06 23:00:00,
2013-06-06 18:05:00,68.4,59.0,29.85,North,11,4.0,10.0,72,0.00,,,0.04,Wunderground v.1.15,2013-06-06 23:05:00,
2013-06-06 18:10:00,68.3,58.9,29.85,North,5,2.0,4.0,72,0.00,,,0.04,Wunderground v.1.15,2013-06-06 23:10:00,
2013-06-06 18:16:00,68.3,58.9,29.85,North,355,2.0,8.0,72,0.00,,,0.04,Wunderground v.1.15,2013-06-06 23:16:00,
2013-06-06 18:22:00,68.1,58.7,29.85,North,355,3.0,3.0,72,0.00,,,0.04,Wunderground v.1.15,2013-06-06 23:22:00,
2013-06-06 18:27:00,67.8,57.7,29.85,NNW,341,3.0,11.0,70,0.00,,,0.04,Wunderground v.1.15,2013-06-06 23:27:00,
2013-06-06 18:32:00,67.8,57.7,29.85,NNW,343,2.0,7.0,70,0.00,,,0.04,Wunderground v.1.15,2013-06-06 23:32:00,
2013-06-06 18:37:00,67.9,58.1,29.85,NNW,344,4.0,9.0,71,0.00,,,0.04,Wunderground v.1.15,2013-06-06 23:37:00,
2013-06-06 18:42:00,67.8,58.4,29.85,NNW,346,3.0,3.0,72,0.00,,,0.04,Wunderground v.1.15,2013-06-06 23:42:00,
2013-06-06 18:47:00,67.8,57.7,29.85,NNW,340,4.0,6.0,70,0.00,,,0.04,Wunderground v.1.15,2013-06-06 23:47:00,
2013-06-06 18:52:00,67.8,57.7,29.85,NNW,338,5.0,7.0,70,0.00,,,0.04,Wunderground v.1.15,2013-06-06 23:52:00,
2013-06-06 18:58:00,67.8,57.7,29.85,NNW,346,1.0,9.0,70,0.00,,,0.04,Wunderground v.1.15,2013-06-06 23:58:00,
2013-06-06 19:03:00,67.6,57.1,29.85,North,355,1.0,5.0,69,0.00,,,0.04,Wunderground v.1.15,2013-06-07 00:03:00,
2013-06-06 19:08:00,67.6,57.5,29.85,NNW,346,5.0,7.0,70,0.00,,,0.04,Wunderground v.1.15,2013-06-07 00:08:00,
2013-06-06 19:13:00,67.4,57.3,29.85,NNW,346,4.0,5.0,70,0.00,,,0.04,Wunderground v.1.15,2013-06-07 00:13:00,
2013-06-06 19:18:00,67.4,57.7,29.85,NNW,346,0.0,5.0,71,0.00,,,0.04,Wunderground v.1.15,2013-06-07 00:18:00,
2013-06-06 19:23:00,67.1,57.8,29.85,NNW,346,2.0,5.0,72,0.00,,,0.04,Wunderground v.1.15,2013-06-07 00:23:00,
2013-06-06 19:28:00,66.9,57.6,29.85,NNW,346,1.0,5.0,72,0.00,,,0.04,Wunderground v.1.15,2013-06-07 00:28:00,
2013-06-06 19:33:00,66.8,57.5,29.86,NNW,346,2.0,4.0,72,0.00,,,0.04,Wunderground v.1.15,2013-06-07 00:33:00,
2013-06-06 19:38:00,66.6,57.7,29.86,NNW,346,0.0,4.0,73,0.00,,,0.04,Wunderground v.1.15,2013-06-07 00:38:00,
2013-06-06 19:43:00,66.3,57.8,29.86,NNW,346,0.0,1.0,74,0.00,,,0.04,Wunderground v.1.15,2013-06-07 00:43:00,
2013-06-06 19:48:00,66.1,57.6,29.86,NNW,346,1.0,2.0,74,0.00,,,0.04,Wunderground v.1.15,2013-06-07 00:48:00,
2013-06-06 19:53:00,66.0,57.8,29.86,NNW,346,0.0,3.0,75,0.00,,,0.04,Wunderground v.1.15,2013-06-07 00:53:00,
2013-06-06 19:58:00,65.6,57.8,29.86,NNW,346,0.0,3.0,76,0.00,,,0.04,Wunderground v.1.15,2013-06-07 00:58:00,
2013-06-06 20:03:00,65.3,57.9,29.86,NNW,346,0.0,0.0,77,0.00,,,0.04,Wunderground v.1.15,2013-06-07 01:03:00,
2013-06-06 20:08:00,65.0,58.0,29.86,NNW,346,2.0,3.0,78,0.00,,,0.04,Wunderground v.1.15,2013-06-07 01:08:00,
2013-06-06 20:13:00,64.8,57.8,29.86,NNW,346,0.0,1.0,78,0.00,,,0.04,Wunderground v.1.15,2013-06-07 01:13:00,
2013-06-06 20:18:00,64.5,57.8,29.87,NNW,346,0.0,1.0,79,0.00,,,0.04,Wunderground v.1.15,2013-06-07 01:18:00,
2013-06-06 20:23:00,64.2,57.9,29.87,NNW,346,0.0,0.0,80,0.00,,,0.04,Wunderground v.1.15,2013-06-07 01:23:00,
2013-06-06 20:28:00,64.0,58.1,29.87,NNW,346,0.0,0.0,81,0.00,,,0.04,Wunderground v.1.15,2013-06-07 01:28:00,
2013-06-06 20:33:00,63.7,58.1,29.87,NNW,346,0.0,0.0,82,0.00,,,0.04,Wunderground v.1.15,2013-06-07 01:33:00,
2013-06-06 20:38:00,63.4,57.8,29.87,NNW,346,0.0,0.0,82,0.00,,,0.04,Wunderground v.1.15,2013-06-07 01:38:00,
2013-06-06 20:43:00,63.1,57.5,29.87,NNW,346,0.0,0.0,82,0.00,,,0.04,Wunderground v.1.15,2013-06-07 01:43:00,
2013-06-06 20:48:00,62.6,57.0,29.87,NNW,346,0.0,0.0,82,0.00,,,0.04,Wunderground v.1.15,2013-06-07 01:48:00,
2013-06-06 20:53:00,62.3,57.1,29.87,NNW,346,0.0,0.0,83,0.00,,,0.04,Wunderground v.1.15,2013-06-07 01:53:00,
2013-06-06 20:58:00,62.0,57.1,29.87,NNW,346,0.0,0.0,84,0.00,,,0.04,Wunderground v.1.15,2013-06-07 01:58:00,
2013-06-06 21:03:00,61.6,56.7,29.87,NNW,346,0.0,0.0,84,0.00,,,0.04,Wunderground v.1.15,2013-06-07 02:03:00,
2013-06-06 21:08:00,61.3,56.8,29.87,NNW,346,0.0,0.0,85,0.00,,,0.04,Wunderground v.1.15,2013-06-07 02:08:00,
2013-06-06 21:13:00,61.2,56.7,29.87,NNW,346,0.0,0.0,85,0.00,,,0.04,Wunderground v.1.15,2013-06-07 02:13:00,
2013-06-06 21:18:00,60.9,56.4,29.87,NNW,346,0.0,0.0,85,0.00,,,0.04,Wunderground v.1.15,2013-06-07 02:18:00,
2013-06-06 21:23:00,60.5,56.3,29.87,NNW,346,0.0,0.0,86,0.00,,,0.04,Wunderground v.1.15,2013-06-07 02:23:00,
2013-06-06 21:28:00,60.4,56.2,29.87,NNW,346,0.0,0.0,86,0.00,,,0.04,Wunderground v.1.15,2013-06-07 02:28:00,
2013-06-06 21:33:00,60.2,56.0,29.88,NNW,346,0.0,0.0,86,0.00,,,0.04,Wunderground v.1.15,2013-06-07 02:33:00,
2013-06-06 21:38:00,59.9,56.0,29.88,NNW,346,0.0,0.0,87,0.00,,,0.04,Wunderground v.1.15,2013-06-07 02:38:00,
2013-06-06 21:43:00,59.8,55.9,29.88,NNW,346,0.0,0.0,87,0.00,,,0.04,Wunderground v.1.15,2013-06-07 02:43:00,
2013-06-06 21:48:00,59.6,55.7,29.89,NNW,346,0.0,0.0,87,0.00,,,0.04,Wunderground v.1.15,2013-06-07 02:48:00,
2013-06-06 21:53:00,59.3,55.7,29.89,NNW,346,0.0,0.0,88,0.00,,,0.04,Wunderground v.1.15,2013-06-07 02:53:00,
2013-06-06 21:58:00,59.2,55.6,29.89,NNW,346,0.0,0.0,88,0.00,,,0.04,Wunderground v.1.15,2013-06-07 02:58:00,
2013-06-06 22:04:00,58.9,55.4,29.89,NNW,346,0.0,0.0,88,0.00,,,0.04,Wunderground v.1.15,2013-06-07 03:04:00,
2013-06-06 22:09:00,58.7,55.5,29.89,NNW,346,0.0,0.0,89,0.00,,,0.04,Wunderground v.1.15,2013-06-07 03:09:00,
2013-06-06 22:14:00,58.6,55.4,29.89,NNW,346,0.0,0.0,89,0.00,,,0.04,Wunderground v.1.15,2013-06-07 03:14:00,
2013-06-06 22:19:00,58.3,55.1,29.90,NNW,346,0.0,0.0,89,0.00,,,0.04,Wunderground v.1.15,2013-06-07 03:19:00,
2013-06-06 22:24:00,58.1,54.9,29.90,NNW,346,0.0,0.0,89,0.00,,,0.04,Wunderground v.1.15,2013-06-07 03:24:00,
2013-06-06 22:29:00,58.0,54.8,29.90,NNW,346,0.0,0.0,89,0.00,,,0.04,Wunderground v.1.15,2013-06-07 03:29:00,
2013-06-06 22:34:00,58.0,55.1,29.90,NNW,346,0.0,0.0,90,0.00,,,0.04,Wunderground v.1.15,2013-06-07 03:34:00,
2013-06-06 22:39:00,57.8,54.9,29.90,NNW,346,0.0,0.0,90,0.00,,,0.04,Wunderground v.1.15,2013-06-07 03:39:00,
2013-06-06 22:44:00,57.6,54.7,29.90,NNW,346,0.0,0.0,90,0.00,,,0.04,Wunderground v.1.15,2013-06-07 03:44:00,
2013-06-06 22:49:00,57.5,54.6,29.90,NNW,346,0.0,0.0,90,0.00,,,0.04,Wunderground v.1.15,2013-06-07 03:49:00,
2013-06-06 22:54:00,57.3,54.4,29.90,NNW,346,0.0,0.0,90,0.00,,,0.04,Wunderground v.1.15,2013-06-07 03:54:00,
2013-06-06 22:59:00,57.2,54.3,29.90,NNW,346,0.0,0.0,90,0.00,,,0.04,Wunderground v.1.15,2013-06-07 03:59:00,
2013-06-06 23:01:00,57.0,54.4,29.90,NNW,346,0.0,0.0,91,0.00,,,0.04,Wunderground v.1.15,2013-06-07 04:01:00,
2013-06-06 23:02:00,57.0,54.4,29.90,NNW,346,0.0,0.0,91,0.00,,,0.04,Wunderground v.1.15,2013-06-07 04:02:00,
2013-06-06 23:07:00,56.9,54.3,29.90,NNW,346,0.0,0.0,91,0.00,,,0.04,Wunderground v.1.15,2013-06-07 04:07:00,
2013-06-06 23:12:00,56.7,54.1,29.90,NNW,346,0.0,0.0,91,0.00,,,0.04,Wunderground v.1.15,2013-06-07 04:12:00,
2013-06-06 23:17:00,56.5,53.9,29.90,NNW,346,0.0,0.0,91,0.00,,,0.04,Wunderground v.1.15,2013-06-07 04:17:00,
2013-06-06 23:22:00,56.3,53.7,29.90,NNW,346,0.0,0.0,91,0.00,,,0.04,Wunderground v.1.15,2013-06-07 04:22:00,
2013-06-06 23:27:00,56.2,53.6,29.90,NNW,346,0.0,0.0,91,0.00,,,0.04,Wunderground v.1.15,2013-06-07 04:27:00,
2013-06-06 23:32:00,56.0,53.4,29.90,NNW,346,0.0,0.0,91,0.00,,,0.04,Wunderground v.1.15,2013-06-07 04:32:00,
2013-06-06 23:37:00,55.9,53.3,29.90,NNW,346,0.0,0.0,91,0.00,,,0.04,Wunderground v.1.15,2013-06-07 04:37:00,
2013-06-06 23:42:00,55.7,53.4,29.90,NNW,346,0.0,0.0,92,0.00,,,0.04,Wunderground v.1.15,2013-06-07 04:42:00,
2013-06-06 23:47:00,55.6,53.3,29.90,NNW,346,0.0,0.0,92,0.00,,,0.04,Wunderground v.1.15,2013-06-07 04:47:00,
2013-06-06 23:52:00,55.4,53.1,29.90,NNW,346,0.0,0.0,92,0.00,,,0.04,Wunderground v.1.15,2013-06-07 04:52:00,
2013-06-06 23:57:00,55.3,53.0,29.90,NNW,346,0.0,0.0,92,0.00,,,0.04,Wunderground v.1.15,2013-06-07 04:57:00,